Weather History for KOXV - May, 2012

Change the Weather History Date:

Thursday, May 17, 2012

  Actual Average Record
Temperature  
Mean Temperature 66 °F -  
Max Temperature 78 °F 75 °F 88 °F (1964)
Min Temperature 53 °F 53 °F 33 °F (2014)
Growing Degree Days 16 (Base 50)    
Moisture  
Dew Point 40 °F    
Average Humidity 42    
Maximum Humidity 67    
Minimum Humidity 24    
Precipitation  
Precipitation 0.00 in - - ()
Sea Level Pressure  
Sea Level Pressure 30.01 in    
Wind  
Wind Speed 9 mph (SSE)    
Max Wind Speed 18 mph    
Max Gust Speed 26 mph    
Visibility 10 miles    
Events      
Averages and records for this station are not official NWS values.
T = Trace of Precipitation, MM = Missing Value Source: NWS Daily Summary

Daily Weather History Graph

Daily Weather History Graph

Search for Another Location

Airport or City:

Trip Planner

Search our weather history database for the weather conditions in past years. The results will help you decide how hot, cold, wet, or windy it might be!

Date:

Astronomy

May. 17, 2012 Rise Set
Actual Time 5:51 AM CDT 8:26 PM CDT
Civil Twilight 5:19 AM CDT 8:58 PM CDT
Nautical Twilight 4:40 AM CDT 9:38 PM CDT
Astronomical Twilight 3:55 AM CDT 10:23 PM CDT
Moon 3:51 AM CDT (5/17) 5:38 PM CDT (5/17)
Length of Visible Light 15h 38m
Length of Day
14h 35m
Waning Crescent, 9% of the Moon is Illuminated
May 17
Waning Crescent
May 20
New
May 28
First Quarter
Jun 4
Full
Jun 11
Last Quarter

Hourly Weather History & Observations

Time (CDT) Temp. Dew Point Humidity Pressure Visibility Wind Dir Wind Speed Gust Speed Precip Events Conditions
12:15 AM 59.0 °F 42.8 °F 55% 30.06 in 10.0 mi SSE 6.9 mph - N/A   Clear
12:35 AM 57.2 °F 42.8 °F 59% 30.06 in 10.0 mi SSE 5.8 mph - N/A   Clear
12:55 AM 57.2 °F 41.0 °F 55% 30.06 in 10.0 mi South 5.8 mph - N/A   Clear
1:15 AM 55.4 °F 42.8 °F 63% 30.05 in 10.0 mi SSE 4.6 mph - N/A   Clear
1:35 AM 55.4 °F 41.0 °F 58% 30.06 in 10.0 mi South 3.5 mph - N/A   Clear
2:15 AM 55.4 °F 42.8 °F 63% 30.05 in 10.0 mi SSE 4.6 mph - N/A   Clear
2:35 AM 55.4 °F 42.8 °F 63% 30.05 in 10.0 mi SSE 4.6 mph - N/A   Clear
2:55 AM 53.6 °F 42.8 °F 67% 30.05 in 10.0 mi SSE 4.6 mph - N/A   Clear
3:15 AM 53.6 °F 42.8 °F 67% 30.05 in 10.0 mi South 4.6 mph - N/A   Clear
3:35 AM 53.6 °F 42.8 °F 67% 30.05 in 10.0 mi SSE 4.6 mph - N/A   Clear
3:55 AM 53.6 °F 42.8 °F 67% 30.05 in 10.0 mi SSE 5.8 mph - N/A   Clear
4:15 AM 53.6 °F 42.8 °F 67% 30.04 in 10.0 mi SSE 5.8 mph - N/A   Clear
4:35 AM 53.6 °F 42.8 °F 67% 30.04 in 10.0 mi SE 6.9 mph - N/A   Clear
4:55 AM 53.6 °F 41.0 °F 62% 30.04 in 10.0 mi SE 8.1 mph - N/A   Clear
5:15 AM 53.6 °F 41.0 °F 62% 30.05 in 10.0 mi SSE 6.9 mph - N/A   Clear
5:35 AM 53.6 °F 39.2 °F 58% 30.05 in 10.0 mi SSE 9.2 mph - N/A   Clear
5:55 AM 53.6 °F 39.2 °F 58% 30.05 in 10.0 mi SSE 8.1 mph - N/A   Clear
6:15 AM 53.6 °F 39.2 °F 58% 30.05 in 10.0 mi SE 9.2 mph - N/A   Clear
6:35 AM 53.6 °F 39.2 °F 58% 30.05 in 10.0 mi SE 9.2 mph - N/A   Clear
6:55 AM 55.4 °F 39.2 °F 54% 30.06 in 10.0 mi SSE 11.5 mph - N/A   Clear
7:15 AM 57.2 °F 37.4 °F 48% 30.06 in 10.0 mi SSE 11.5 mph - N/A   Clear
7:35 AM 57.2 °F 37.4 °F 48% 30.06 in 10.0 mi SSE 10.4 mph - N/A   Clear
7:55 AM 59.0 °F 35.6 °F 42% 30.07 in 10.0 mi SSE 13.8 mph 18.4 mph N/A   Clear
8:15 AM 60.8 °F 35.6 °F 39% 30.08 in 10.0 mi SSE 11.5 mph 16.1 mph N/A   Clear
8:35 AM 60.8 °F 35.6 °F 39% 30.08 in 10.0 mi South 12.7 mph - N/A   Clear
8:55 AM 62.6 °F 33.8 °F 34% 30.08 in 10.0 mi SSE 15.0 mph - N/A   Clear
9:15 AM 64.4 °F 35.6 °F 34% 30.09 in 10.0 mi SSE 11.5 mph - N/A   Clear
9:35 AM 64.4 °F 35.6 °F 34% 30.09 in 10.0 mi SSE 12.7 mph - N/A   Clear
9:55 AM 66.2 °F 35.6 °F 32% 30.08 in 10.0 mi SSE 13.8 mph 20.7 mph N/A   Clear
10:15 AM 66.2 °F 35.6 °F 32% 30.07 in 10.0 mi SE 15.0 mph 21.9 mph N/A   Clear
10:35 AM 68.0 °F 37.4 °F 33% 30.07 in 10.0 mi SSE 16.1 mph 20.7 mph N/A   Clear
10:55 AM 69.8 °F 37.4 °F 31% 30.06 in 10.0 mi SSE 18.4 mph 23.0 mph N/A   Clear
11:15 AM 69.8 °F 37.4 °F 31% 30.06 in 10.0 mi South 17.3 mph 23.0 mph N/A   Clear
11:35 AM 71.6 °F 39.2 °F 31% 30.05 in 10.0 mi South 17.3 mph 25.3 mph N/A   Clear
11:55 AM 71.6 °F 39.2 °F 31% 30.05 in 10.0 mi SSE 15.0 mph - N/A   Clear
12:15 PM 73.4 °F 42.8 °F 33% 30.04 in 10.0 mi South 15.0 mph 20.7 mph N/A   Clear
12:35 PM 73.4 °F 41.0 °F 31% 30.03 in 10.0 mi SSE 15.0 mph - N/A   Clear
12:55 PM 73.4 °F 41.0 °F 31% 30.02 in 10.0 mi SSE 13.8 mph 20.7 mph N/A   Clear
1:15 PM 75.2 °F 39.2 °F 27% 30.02 in 10.0 mi SSE 17.3 mph 20.7 mph N/A   Clear
1:35 PM 75.2 °F 41.0 °F 29% 30.01 in 10.0 mi SSE 12.7 mph 21.9 mph N/A   Clear
1:55 PM 75.2 °F 39.2 °F 27% 30.01 in 10.0 mi SSE 13.8 mph 19.6 mph N/A   Clear
2:15 PM 75.2 °F 42.8 °F 31% 30.00 in 10.0 mi SSE 12.7 mph 17.3 mph N/A   Clear
2:35 PM 77.0 °F 41.0 °F 28% 29.98 in 10.0 mi SSE 16.1 mph - N/A   Clear
2:55 PM 77.0 °F 39.2 °F 26% 29.97 in 10.0 mi SE 15.0 mph 24.2 mph N/A   Clear
3:15 PM 78.8 °F 39.2 °F 24% 29.97 in 10.0 mi SE 15.0 mph 21.9 mph N/A   Clear
3:35 PM 78.8 °F 39.2 °F 24% 29.96 in 10.0 mi SE 16.1 mph 20.7 mph N/A   Clear
3:55 PM 78.8 °F 39.2 °F 24% 29.96 in 10.0 mi SSE 12.7 mph 26.5 mph N/A   Clear
4:15 PM 78.8 °F 41.0 °F 26% 29.95 in 10.0 mi SSE 13.8 mph 18.4 mph N/A   Clear
4:35 PM 78.8 °F 41.0 °F 26% 29.94 in 10.0 mi SSE 11.5 mph 19.6 mph N/A   Clear
4:55 PM 78.8 °F 39.2 °F 24% 29.94 in 10.0 mi SSE 17.3 mph - N/A   Clear
5:15 PM 78.8 °F 39.2 °F 24% 29.94 in 10.0 mi SSE 15.0 mph 20.7 mph N/A   Clear
5:35 PM 77.0 °F 39.2 °F 26% 29.94 in 10.0 mi SSE 12.7 mph 23.0 mph N/A   Clear
5:55 PM 77.0 °F 39.2 °F 26% 29.93 in 10.0 mi SSE 15.0 mph 24.2 mph N/A   Clear
6:15 PM 75.2 °F 39.2 °F 27% 29.93 in 10.0 mi SSE 15.0 mph 20.7 mph N/A   Clear
6:35 PM 75.2 °F 39.2 °F 27% 29.93 in 10.0 mi SSE 13.8 mph 19.6 mph N/A   Clear
6:55 PM 75.2 °F 42.8 °F 31% 29.93 in 10.0 mi SSE 11.5 mph 17.3 mph N/A   Clear
7:15 PM 73.4 °F 42.8 °F 33% 29.93 in 10.0 mi SSE 10.4 mph 16.1 mph N/A   Clear
7:35 PM 73.4 °F 42.8 °F 33% 29.93 in 10.0 mi SSE 10.4 mph - N/A   Clear
7:55 PM 71.6 °F 42.8 °F 35% 29.93 in 10.0 mi SSE 9.2 mph - N/A   Clear
8:15 PM 69.8 °F 41.0 °F 35% 29.93 in 10.0 mi SE 8.1 mph - N/A   Clear
8:35 PM 69.8 °F 42.8 °F 38% 29.93 in 10.0 mi SSE 8.1 mph - N/A   Clear
8:55 PM 66.2 °F 42.8 °F 43% 29.93 in 10.0 mi SE 8.1 mph - N/A   Clear
9:15 PM 66.2 °F 42.8 °F 43% 29.93 in 10.0 mi SSE 8.1 mph - N/A   Clear
9:35 PM 66.2 °F 42.8 °F 43% 29.93 in 10.0 mi SSE 8.1 mph - N/A   Clear
9:55 PM 66.2 °F 41.0 °F 40% 29.93 in 10.0 mi SE 6.9 mph - N/A   Clear
10:15 PM 64.4 °F 41.0 °F 42% 29.94 in 10.0 mi SSE 8.1 mph - N/A   Clear
10:35 PM 64.4 °F 41.0 °F 42% 29.94 in 10.0 mi SSE 8.1 mph - N/A   Clear
10:55 PM 62.6 °F 42.8 °F 48% 29.94 in 10.0 mi SSE 5.8 mph - N/A   Clear
11:15 PM 62.6 °F 41.0 °F 45% 29.94 in 10.0 mi SSE 6.9 mph - N/A   Clear
11:35 PM 62.6 °F 41.0 °F 45% 29.94 in 10.0 mi SSE 6.9 mph - N/A   Clear
11:55 PM 60.8 °F 42.8 °F 52% 29.94 in 10.0 mi SSE 4.6 mph - N/A   Clear